Location: Lafig�re
(44.4503°N, 4.0357°E)
Time: 00:31:42
(UTC+00:00)

ARGOS - Pass Details

Date: 01 February 2021
Orbit: 821 x 834 km, 98.4° (Epoch: 03 March)

Event Time Altitude Azimuth Distance (km) Brightness Sun altitude
Rises 18:46:22 0° 166° (SSE) 3,343 6.2 -20.4°
Reaches altitude 10° 18:48:42 10° 167° (SSE) 2,416 5.5 -20.8°
Maximum altitude 18:54:04 84° 256° (WSW) 837 3.1 -21.7°
Drops below altitude 10° 18:59:30 10° 345° (NNW) 2,442 5.7 -22.7°
Sets 19:01:52 0° 346° (NNW) 3,382 6.5 -23.1°
